sat.trackr.live / text

‹ back to catalog

MUOS-4

NORAD 40887 · 2015-044A

PAYLOAD ACTIVE UNKNOWN

§ Identity

Operator
Country
US
Launch date
2015-09-02
Launch site
AFETR
Launch vehicle
Mass (kg)
RCS (m²)
99.62

Purposes: comms

External: N2YO · Heavens-Above · Gunter

§ Orbital elements

Epoch: 2026-05-25T04:06:00.213120Z

Period
1,436.09 min
Inclination
4.2888°
Eccentricity
0.0059982
Mean motion
1.00272577 rev/d
Perigee alt
35,533.5 km
Apogee alt
36,039.3 km
Semi-major
42,164.5 km
B*
0.0000e+0
RAAN
42.1114°
Arg perigee
3.6340°
Mean anomaly
333.5154°
Rev number
3,932

§ Raw data

MUOS-41 40887U 15044A   26145.17083580 -.00000096  00000+0  00000+0 0  99952 40887   4.2888  42.1114 0059982   3.6340 333.5154  1.00272577 39323

JSON: /api/v1/satellites/40887 · /tle

For live sub-satellite position, see the globe view (requires WebGL).

§ Visibility from observer

Set your observer location to see the next 7 days of passes ≥ 10°. The values pass through the URL so the page stays shareable.

No JS? Fill the form by hand. The geolocation button needs JavaScript.